Torna al catalogo

ARIANE 42P+ DEB

LostHEO
NORAD 34197·DEBRIS·🇫🇷 France

Lanciato Oct 28, 1992 da Guiana Space Centre

Loading…

Prossimi Passaggi (prossime 24 ore)

TLE

ObsoletoSource: Space-Track

Epoca: Jan 20, 2026, 15:41 UTC

1 34197U 92072AD  26020.65374520  .00000810  00000-0  18053-2 0  9994
2 34197  13.0830 200.9337 5744190 236.7174  54.9220  4.22478608184438

Traccia ARIANE 42P+ DEB in tempo reale con AllMySat

Download on the App Store